Terminal Aerodrome Forecast
Issued by NWS

Home | Current Version | Previous Version | Text Only | Print | Product List | Glossary On
Versions: 1 2 3 4 5 6 7 8 9 10 11 12 13 14 15 16 17 18 19 20 21 22 23 24 25 26 27 28 29 30 31 32 33 34 35 36 37 38 39 40 41 42 43 44 45
208
FTAK31 PAFA 261314 AAA
TAFAOT
TAF AMD
PAOT 261314Z 2613/2712 15006KT P6SM -RA BKN008 BKN017 OVC040
     FM261600 18008KT 3SM -RA BR SCT007 BKN015 OVC025
     FM270100 34004KT P6SM VCSH SCT015 BKN050=

USA.gov is the U.S. government's official web portal to all federal, state and local government web resources and services.